Tracking 33165 objects as of 7-Feb-2026
HD Live streaming from Space Station
objects crossing your sky now

CZ-6A DEB

Track CZ-6A DEB now!
10-day predictions


NORAD ID: 55007
Int'l Code: 2022-151UX
Perigee: 480.3 km
Apogee: 524.0 km
Inclination: 98.6 °
Period: 94.5 minutes
Semi major axis: 6873 km
RCS: Unknown
Launch date: November 11, 2022
Source: People's Republic of China (PRC)
Launch site: Taiyaun Space Center, China (TSC)

Note: This is SATELLITE DEBRIS
Your satellite tracking list
Your tracking list is empty




NASA's NSSDC Master Catalog

Two Line Element Set (TLE):
1 55007U 22151UX  26038.20723475  .00268416  00000-0  10696-1 0  9997
2 55007  98.6337 121.6344 0031803 259.7809  99.9837 15.23580449171488
Source of the keplerian elements: AFSPC